Date String (YYYY-MM-DD hh:mm:ss) UTC,Instrument flags,Ambient pressure (hPa),Sample flow (lpm),Bypass flow (lpm),Sample temperature (°C),Ambient temperature (°C),ASC tube jacket temperature (°C),LED temperature (°C),Box temperature (°C),Sample RH (%),Span deviation,Mass concentration (μg/m³),Mass concentration (μg/m³),Mass concentration (μg/m³)
DateTimeUTC,F1_M11,P_M11,Q1_M11,Q2_M11,T1_M11,T2_M11,T3_M11,T4_M11,T5_M11,U1_M11,ZSPAN_M11,X0_M11,X2_M11,X1_M11
2023-02-25 23:00:00,,0821.8,5.02,0.00,23.1,21.7,00.0,31.8,24.9,10.6,0000.0,0002.40,0001.23,0000.73
2023-02-25 23:01:00,,0821.8,5.03,0.00,23.1,21.8,00.0,31.8,24.9,10.6,0000.0,0002.33,0001.19,0000.72
2023-02-25 23:02:00,,0821.9,5.01,0.00,23.1,21.8,00.0,31.8,25.0,11.0,0000.0,0002.33,0001.19,0000.71
2023-02-25 23:03:00,,0822.0,5.02,0.00,23.1,21.8,00.0,31.9,25.0,10.3,0000.0,0002.13,0001.18,0000.71
2023-02-25 23:04:00,,0821.9,5.02,0.00,23.1,21.8,00.0,31.9,24.9,10.3,0000.0,0002.05,0001.14,0000.70
2023-02-25 23:05:00,,0822.0,4.99,0.00,23.1,21.8,00.0,31.9,24.9,10.1,0000.0,0002.08,0001.15,0000.71
2023-02-25 23:06:00,,0822.0,5.00,0.00,23.1,21.8,00.0,31.9,24.9,10.6,0000.0,0002.06,0001.13,0000.69
2023-02-25 23:07:00,,0822.0,4.98,0.00,23.1,21.8,00.0,31.9,24.9,11.0,0000.0,0002.00,0001.11,0000.69
2023-02-25 23:08:00,,0822.0,5.01,0.00,23.1,21.8,00.0,31.9,25.0,10.8,0000.0,0002.17,0001.18,0000.70
2023-02-25 23:09:00,,0822.1,5.00,0.00,23.1,21.8,00.0,31.9,25.0,11.4,0000.0,0002.22,0001.20,0000.71
2023-02-25 23:10:00,,0822.1,5.00,0.00,23.2,21.8,00.0,31.9,25.0,11.9,0000.0,0002.45,0001.20,0000.71
2023-02-25 23:11:00,,0822.0,4.99,0.00,23.2,21.9,00.0,31.9,25.0,11.9,0000.0,0003.45,0001.20,0000.71
2023-02-25 23:12:00,,0822.1,5.02,0.00,23.2,21.9,00.0,31.9,25.0,12.0,0000.0,0003.55,0001.24,0000.72
2023-02-25 23:13:00,,0822.1,5.00,0.00,23.2,21.9,00.0,31.9,25.0,12.9,0000.0,0003.58,0001.27,0000.75
2023-02-25 23:14:00,,0822.1,5.00,0.00,23.2,22.0,00.0,31.9,25.0,15.2,0000.0,0003.73,0001.41,0000.90
2023-02-25 23:15:00,,0822.1,4.98,0.00,23.2,22.0,00.0,31.9,25.1,18.1,0000.0,0005.22,0002.00,0001.39
2023-02-25 23:16:00,,0822.1,5.00,0.00,23.3,22.0,00.0,31.9,25.1,18.5,0000.0,0006.34,0002.63,0001.97
2023-02-25 23:17:00,,0822.1,5.00,0.00,23.3,22.0,00.0,31.9,25.1,18.6,0000.0,0007.05,0003.18,0002.53
2023-02-25 23:18:00,,0822.1,5.00,0.00,23.3,21.9,00.0,31.9,25.1,18.4,0000.0,0007.63,0003.56,0003.06
2023-02-25 23:19:00,,0822.1,4.99,0.00,23.3,21.9,00.0,31.9,25.1,18.7,0000.0,0007.93,0003.86,0003.39
2023-02-25 23:20:00,,0822.1,5.00,0.00,23.3,21.8,00.0,31.9,25.1,18.5,0000.0,0008.27,0004.17,0003.68
2023-02-25 23:21:00,,0822.1,5.01,0.00,23.3,21.8,00.0,32.0,25.1,18.0,0000.0,0008.52,0004.50,0004.00
2023-02-25 23:22:00,,0822.1,5.01,0.00,23.3,21.8,00.0,32.0,25.1,18.5,0000.0,0008.36,0004.85,0004.32
2023-02-25 23:23:00,,0822.1,5.00,0.00,23.3,21.7,00.0,32.0,25.1,17.9,0000.0,0008.84,0005.24,0004.69
2023-02-25 23:24:00,,0822.1,5.00,0.00,23.3,21.7,00.0,32.0,25.1,18.1,0000.0,0009.37,0005.65,0005.05
2023-02-25 23:25:00,,0822.1,5.00,0.00,23.3,21.7,00.0,32.0,25.1,18.3,0000.0,0009.79,0005.99,0005.35
2023-02-25 23:26:00,,0822.1,4.98,0.00,23.3,21.7,00.0,32.0,25.1,18.6,0000.0,0009.60,0006.12,0005.46
2023-02-25 23:27:00,,0822.1,5.00,0.00,23.3,21.7,00.0,32.0,25.1,19.1,0000.0,0009.52,0006.19,0005.51
2023-02-25 23:28:00,,0822.2,5.00,0.00,23.3,21.6,00.0,32.0,25.1,19.3,0000.0,0009.54,0006.24,0005.58
2023-02-25 23:29:00,,0822.1,5.00,0.00,23.3,21.6,00.0,32.0,25.0,19.1,0000.0,0009.87,0006.34,0005.68
2023-02-25 23:30:00,,0822.1,5.00,0.00,23.2,21.6,00.0,32.0,25.0,18.7,0000.0,0010.24,0006.47,0005.80
2023-02-25 23:31:00,,0822.1,5.01,0.00,23.2,21.5,00.0,32.0,25.0,19.0,0000.0,0011.09,0006.61,0005.93
2023-02-25 23:32:00,,0822.1,5.00,0.00,23.2,21.5,00.0,31.9,25.0,18.9,0000.0,0011.77,0006.70,0006.02
2023-02-25 23:33:00,,0822.1,5.00,0.00,23.2,21.5,00.0,31.9,25.0,18.6,0000.0,0012.17,0006.84,0006.11
2023-02-25 23:34:00,,0822.2,5.01,0.00,23.2,21.5,00.0,31.9,25.0,17.6,0000.0,0012.42,0006.94,0006.18
2023-02-25 23:35:00,,0822.2,5.00,0.00,23.2,21.5,00.0,31.9,25.0,17.6,0000.0,0012.45,0007.01,0006.25
2023-02-25 23:36:00,,0822.2,5.00,0.00,23.2,21.5,00.0,31.9,25.0,17.8,0000.0,0012.53,0007.09,0006.33
2023-02-25 23:37:00,,0822.3,5.00,0.00,23.2,21.5,00.0,31.9,25.0,18.4,0000.0,0012.42,0007.11,0006.40
2023-02-25 23:38:00,,0822.2,4.99,0.00,23.2,21.5,00.0,31.9,25.0,18.3,0000.0,0012.29,0007.16,0006.48
2023-02-25 23:39:00,,0822.2,5.00,0.00,23.2,21.5,00.0,31.9,24.9,18.2,0000.0,0012.37,0007.25,0006.58
2023-02-25 23:40:00,,0822.2,5.00,0.00,23.2,21.5,00.0,31.9,25.0,18.4,0000.0,0012.31,0007.32,0006.65
2023-02-25 23:41:00,,0822.2,5.01,0.00,23.2,21.5,00.0,31.9,25.0,18.6,0000.0,0012.07,0007.34,0006.68
2023-02-25 23:42:00,,0822.2,5.00,0.00,23.2,21.5,00.0,31.9,25.0,18.6,0000.0,0011.48,0007.37,0006.71
2023-02-25 23:43:00,,0822.2,4.98,0.00,23.2,21.5,00.0,31.9,25.0,17.8,0000.0,0011.11,0007.44,0006.74
2023-02-25 23:44:00,,0822.2,4.98,0.00,23.2,21.5,00.0,31.9,25.0,17.6,0000.0,0011.45,0007.46,0006.79
2023-02-25 23:45:00,,0822.3,5.00,0.00,23.2,21.6,00.0,31.9,25.0,17.7,0000.0,0011.20,0007.46,0006.82
2023-02-25 23:46:00,,0822.3,5.00,0.00,23.2,21.6,00.0,31.9,25.0,17.8,0000.0,0012.03,0007.46,0006.82
2023-02-25 23:47:00,,0822.3,5.00,0.00,23.2,21.6,00.0,31.9,25.0,17.6,0000.0,0012.38,0007.44,0006.81
2023-02-25 23:48:00,,0822.3,5.00,0.00,23.2,21.6,00.0,31.9,25.0,17.7,0000.0,0012.71,0007.45,0006.80
2023-02-25 23:49:00,,0822.3,4.99,0.00,23.2,21.6,00.0,31.9,25.0,17.0,0000.0,0013.26,0007.49,0006.79
2023-02-25 23:50:00,,0822.3,4.98,0.00,23.2,21.7,00.0,31.9,25.0,16.8,0000.0,0013.32,0007.49,0006.76
2023-02-25 23:51:00,,0822.3,5.01,0.00,23.2,21.7,00.0,31.9,25.0,17.0,0000.0,0013.32,0007.46,0006.74
2023-02-25 23:52:00,,0822.3,5.00,0.00,23.2,21.6,00.0,31.9,25.0,16.8,0000.0,0013.24,0007.42,0006.71
2023-02-25 23:53:00,,0822.3,5.00,0.00,23.2,21.6,00.0,31.9,25.0,16.7,0000.0,0013.07,0007.36,0006.69
2023-02-25 23:54:00,,0822.3,5.00,0.00,23.2,21.6,00.0,31.9,25.0,16.9,0000.0,0013.21,0007.32,0006.67
2023-02-25 23:55:00,,0822.2,5.00,0.00,23.2,21.6,00.0,31.9,25.0,16.9,0000.0,0013.14,0007.27,0006.63
2023-02-25 23:56:00,,0822.2,5.00,0.00,23.2,21.6,00.0,31.9,25.0,16.8,0000.0,0013.15,0007.24,0006.60
2023-02-25 23:57:00,,0822.2,5.01,0.00,23.2,21.6,00.0,31.9,25.0,16.8,0000.0,0012.26,0007.18,0006.57
2023-02-25 23:58:00,,0822.3,5.00,0.00,23.2,21.6,00.0,31.9,25.0,16.8,0000.0,0011.97,0007.17,0006.56
2023-02-25 23:59:00,,0822.3,4.98,0.00,23.2,21.6,00.0,31.9,25.0,16.7,0000.0,0011.66,0007.13,0006.54
